Dewpoint
40 40 40 40 41 42 41 41 43 43 45 44 41 43 36 35 31 42 42 43 40 38 31 32 32 30 30 32 32 34 34 31 35 32 38 36 38 38 37 35 36 37 37 35 36 37 35 37 36 37 36 35 30 37 34 34 31 32 31 30 30 35 30 28 27 30 31 30 31 32 31 35 34 33 34 33 31 30 28 26 26 26 24 24 24 22 25
40 40 39 40 41 41 41 42 42 43 44 44 44 39 34 35 35 38 42 42 40 34 27 27 29 30 32 31 30 34 34 31 32 31 35 35 37 36 36 37 39 37 40 38 35 38 33 36 35 34 35 34 31 34 34 34 32 31 29 29 33 28 29 29 27 27 28 28 29 30 32 33 33 32 32 33 33 34 32 28 27 23 26 25 25 23 25
41 41 41 41 41 41 40 41 41 43 42 45 43 37 38 37 39 37 41 42 39 32 31 29 29 30 30 30 29 31 32 34 32 31 31 36 36 37 36 37 40 37 40 38 39 38 37 33 37 34 34 32 35 34 34 34 32 36 36 35 36 31 29 29 25 23 22 22 23 24 27 29 32 34 33 32 32 32 29 26 25 23 25 25 25 24 27
40 41 41 40 39 39 39 40 41 42 42 43 42 39 36 32 25 34 35 39 36 35 33 31 29 29 30 29 30 30 30 32 34 34 33 35 36 35 36 40 39 37 38 36 36 36 36 37 34 34 32 31 33 36 34 34 34 35 36 35 35 30 31 30 28 27 26 26 28 32 32 31 30 31 32 32 32 32 32 29 26 24 26 25 26 27 28
41 40 38 38 38 38 39 39 40 41 42 43 42 40 36 38 28 30 28 34 35 33 33 28 28 28 30 27 29 28 29 31 32 35 31 35 35 35 36 36 37 36 36 35 35 36 34 34 35 34 32 32 33 35 35 33 35 37 35 34 33 30 29 30 31 31 29 30 31 31 31 30 31 31 31 32 32 32 32 29 27 28 26 24 27 28 28
38 37 37 37 38 38 39 40 40 41 41 42 43 34 36 28 31 30 32 29 26 30 30 29 28 28 29 27 30 28 28 29 29 33 33 36 35 34 36 36 36 37 36 36 33 35 33 33 32 33 31 32 33 33 35 33 35 34 33 34 29 29 27 31 31 29 30 31 29 30 31 31 31 32 32 32 32 31 30 30 31 30 27 25 30 30 28
37 37 37 37 37 38 39 39 40 40 40 42 41 33 36 35 36 35 35 29 29 30 31 31 29 28 28 26 28 27 28 28 29 32 32 33 34 35 32 34 36 36 38 38 35 35 31 30 34 32 31 32 32 31 33 34 38 35 37 32 32 28 27 30 31 28 30 29 31 31 30 31 31 32 32 32 32 31 30 30 31 30 30 30 31 29 29
38 38 38 37 38 38 38 39 39 40 42 43 39 36 32 32 31 31 35 31 27 28 30 31 29 27 29 26 27 27 28 28 29 31 31 29 32 36 32 32 37 37 37 38 36 35 35 35 32 35 34 32 34 32 32 32 32 33 32 34 32 28 26 31 28 25 26 29 31 31 31 30 29 30 32 32 32 31 31 31 31 31 30 30 31 31 30
39 38 38 38 38 38 38 39 40 40 41 39 37 35 37 37 37 35 32 29 29 28 30 30 29 27 27 26 26 26 27 28 29 29 32 29 29 35 34 34 35 37 36 37 38 37 36 36 36 36 37 33 34 32 32 33 31 32 32 31 31 31 27 31 27 25 24 27 29 29 30 29 28 29 30 31 31 31 31 30 31 30 29 30 30 29 28
39 38 39 40 40 39 39 39 39 39 40 39 37 32 38 38 37 38 35 29 31 28 28 29 29 26 26 27 26 26 26 29 28 27 31 31 30 34 36 35 33 35 37 37 38 38 38 38 38 36 36 40 38 39 37 33 31 31 31 32 28 28 27 26 26 24 24 26 27 26 28 27 26 27 29 30 31 31 32 32 32 30 30 29 28 27 29
36 37 39 39 40 40 40 41 40 40 41 38 35 34 37 36 33 36 35 29 30 31 28 28 27 28 28 28 27 28 28 28 28 25 27 32 31 33 35 35 33 32 35 37 41 40 39 38 39 37 37 35 35 38 37 37 35 33 32 30 30 28 28 26 28 24 24 28 28 28 25 20 21 27 33 31 30 31 31 31 31 31 31 29 29 29 31
39 39 40 39 38 40 41 41 40 40 40 41 40 36 38 38 37 36 33 27 28 32 30 27 27 28 27 28 28 27 27 28 28 28 25 31 32 33 34 34 34 31 36 39 37 36 37 39 38 37 37 36 36 37 37 37 36 36 32 30 29 29 29 26 28 24 23 26 27 24 20 21 26 31 35 30 29 30 31 31 31 31 31 31 29 30 30
36 36 37 39 39 40 40 41 41 40 40 42 40 35 38 39 36 34 33 31 28 29 29 29 29 29 28 28 28 27 28 29 29 29 27 30 31 33 34 34 34 33 38 36 35 34 34 32 34 35 34 35 35 35 35 35 34 36 33 31 28 28 27 27 25 24 24 23 24 20 20 26 31 29 27 31 28 29 31 31 31 30 31 31 31 30 30
36 36 36 36 37 39 40 41 40 40 41 40 39 38 38 38 33 33 33 31 30 31 31 30 30 29 28 28 28 28 28 28 28 29 26 29 31 33 34 34 35 38 37 35 35 33 31 32 30 31 31 32 32 31 32 34 32 33 35 33 31 29 29 26 23 24 23 23 23 23 30 26 26 26 25 27 27 27 28 27 27 28 28 29 30 30 30
36 36 36 36 36 36 39 40 40 40 40 40 40 38 38 37 36 35 34 35 30 31 33 29 30 30 28 28 28 28 28 28 27 27 29 31 33 35 36 37 37 36 36 35 35 35 32 32 29 27 29 28 25 26 33 32 31 33 32 32 34 31 28 26 24 21 24 23 22 22 21 20 22 30 31 28 30 29 31 28 26 31 28 29 29 29 28
37 36 35 35 35 36 37 37 38 39 40 40 39 37 36 38 37 36 35 35 33 29 32 33 32 32 30 29 29 28 27 27 27 27 28 30 33 36 38 37 36 35 35 35 34 33 31 30 27 27 25 27 30 29 25 31 31 31 33 32 32 31 31 30 26 24 22 24 23 22 20 21 27 28 30 31 31 32 34 28 26 29 29 29 28 28 28
37 36 35 35 35 36 36 37 37 37 38 39 37 36 35 38 36 35 34 35 35 30 36 35 34 33 31 30 30 28 28 26 27 26 26 29 33 34 35 35 35 35 34 33 32 32 31 31 30 28 28 31 29 27 29 30 29 29 30 32 31 31 27 26 27 22 24 24 22 21 22 21 24 29 29 27 31 33 28 20 20 33 30 30 29 28 29
36 35 34 34 35 35 36 36 37 37 38 39 38 35 34 38 38 36 34 36 32 31 37 36 33 33 30 29 28 29 30 30 29 30 28 31 33 33 33 33 33 36 36 32 31 31 31 31 28 28 26 30 30 29 25 28 27 28 28 29 29 30 28 27 26 25 23 25 21 20 23 28 30 28 26 29 33 28 21 17 23 31 29 29 30 30 31
36 35 34 35 34 35 36 36 36 37 38 38 38 36 35 38 38 37 36 36 34 30 37 34 37 33 33 32 31 31 31 30 30 28 28 30 32 34 33 33 36 31 34 31 32 31 31 29 27 28 27 24 25 26 29 27 27 29 29 28 28 28 28 26 27 24 22 22 21 21 23 26 26 26 30 30 28 21 20 25 27 29 26 30 30 31 30
36 35 35 35 34 35 35 36 37 37 37 38 37 33 34 36 37 36 33 32 35 32 34 35 36 33 37 32 30 29 31 32 31 29 29 29 34 34 32 31 33 33 32 33 31 32 31 29 29 26 27 26 27 28 26 26 27 28 28 28 26 27 27 24 24 25 24 21 20 16 18 25 29 30 25 27 24 23 24 26 23 29 28 28 27 30 30
36 36 35 35 35 35 36 35 36 36 37 38 37 33 32 37 37 37 36 34 34 32 33 36 36 38 36 36 34 33 33 31 31 29 31 31 34 32 29 29 32 32 31 33 30 31 32 30 26 25 28 28 27 26 25 25 23 29 29 27 27 27 25 24 25 24 21 21 20 20 23 26 30 27 24 25 26 31 24 24 24 29 28 29 29 28 31
36 36 35 35 35 35 35 35 35 36 37 38 37 35 31 34 36 37 36 36 36 32 36 36 36 36 36 37 36 37 38 37 36 34 32 33 34 33 33 34 34 33 33 34 31 30 30 28 22 23 24 23 22 25 28 23 22 24 26 28 25 27 27 28 24 25 23 23 23 26 27 27 28 25 26 26 28 31 28 28 26 27 27 30 30 29 30
37 36 35 35 34 35 35 35 35 36 37 38 37 33 31 33 34 36 36 34 35 36 36 34 37 35 38 37 37 39 36 37 40 39 35 33 33 35 35 35 34 35 32 36 33 32 32 30 28 27 26 25 25 21 22 24 24 25 25 28 27 29 29 28 29 25 27 28 28 29 25 26 28 29 31 27 27 30 32 31 28 28 30 30 27 31 30
34 35 35 35 35 34 35 34 34 37 37 37 37 33 32 34 35 35 35 35 32 32 34 36 33 29 27 33 32 38 37 37 38 39 39 35 31 31 34 37 37 33 32 35 35 32 30 31 30 27 26 27 26 23 22 21 22 27 27 26 28 26 26 29 27 29 24 23 24 25 26 27 27 27 30 30 27 29 29 30 32 31 31 29 30 34 31
37 35 35 35 35 34 34 33 35 36 36 37 37 36 35 34 35 35 31 27 31 32 29 29 31 34 35 36 37 37 37 37 38 38 39 38 34 31 32 35 35 32 31 34 31 31 30 27 23 24 27 28 28 23 27 25 22 25 25 27 26 25 27 24 24 25 23 23 24 26 26 26 28 27 29 29 28 28 29 31 31 34 31 29 30 33 32
34 36 36 34 34 34 34 34 34 34 35 36 37 33 32 32 35 36 33 31 30 31 30 30 31 36 34 36 35 34 37 38 38 38 38 39 37 37 34 36 34 36 35 34 32 31 29 28 27 24 27 27 30 25 24 27 28 27 26 27 26 27 26 24 25 24 24 23 24 25 25 27 28 30 29 29 28 27 27 28 31 31 30 30 30 30 31
35 35 36 35 34 34 34 34 33 35 36 36 38 34 32 33 36 35 31 28 30 26 28 28 31 32 34 34 35 37 37 37 38 37 37 37 38 39 37 36 35 35 35 33 32 32 30 29 27 26 29 28 29 26 27 26 28 26 26 27 26 26 25 25 26 25 24 24 23 25 24 23 25 29 28 28 29 26 25 29 30 31 30 31 30 32 30
34 35 35 34 34 34 34 34 34 34 35 36 36 34 33 32 34 36 36 34 30 25 29 29 30 32 34 31 35 36 37 38 38 38 37 37 38 38 39 39 35 34 32 31 27 26 28 26 26 29 29 28 26 23 25 26 27 26 26 26 26 24 25 24 24 24 24 24 27 26 25 25 26 27 28 28 28 28 26 27 28 30 29 30 31 31 31
33 33 35 33 33 34 34 34 33 33 36 35 32 31 32 33 34 36 36 36 33 30 31 31 32 31 30 28 36 33 36 39 39 38 38 37 37 39 38 35 36 36 34 33 32 30 29 28 32 28 27 32 29 23 26 23 24 24 24 26 26 25 27 25 25 25 25 28 27 26 25 24 25 26 28 28 30 29 27 26 27 28 31 32 31 29 28
33 33 35 33 33 33 33 34 34 34 36 33 30 28 26 31 35 36 37 36 33 30 31 29 28 28 31 32 32 32 32 36 36 37 37 36 37 38 38 37 37 36 35 34 32 27 31 30 31 31 33 34 28 26 24 22 22 26 26 27 26 27 26 27 27 25 24 27 28 27 26 25 31 29 27 27 30 29 27 27 27 29 32 33 32 32 32
33 33 34 33 32 32 33 34 34 35 36 31 28 23 22 20 29 36 37 36 35 31 28 30 28 30 30 32 32 32 33 35 35 35 35 35 35 34 34 36 34 35 31 32 32 33 31 29 30 29 31 32 31 26 25 23 23 25 25 26 27 26 26 26 26 28 30 27 29 31 32 30 29 30 30 30 31 31 30 29 31 30 32 32 33 33 32
33 33 33 33 32 34 33 34 34 35 35 31 27 26 26 28 32 36 38 36 34 31 29 30 28 29 29 31 31 32 32 33 32 33 33 36 32 34 35 36 33 36 35 31 32 30 30 33 31 30 29 34 32 24 24 25 24 26 25 25 27 27 26 26 26 27 29 28 27 27 27 30 33 25 25 28 30 31 30 31 31 31 28 29 26 26 28
33 34 35 34 34 35 33 34 33 34 35 35 34 34 35 35 35 37 37 34 32 29 28 28 28 29 28 30 31 32 33 32 32 32 31 34 31 33 32 33 33 33 36 33 30 30 30 31 30 29 29 29 28 23 24 26 27 24 24 25 26 26 26 27 28 30 28 28 27 25 26 25 26 29 29 32 32 32 31 29 27 27 28 28 27 27 26
33 34 34 33 34 35 35 34 33 35 34 30 27 29 34 34 36 36 36 32 31 30 28 26 25 26 26 30 30 31 33 32 32 32 32 33 32 32 32 32 32 32 32 31 30 31 30 31 29 29 28 26 27 24 23 27 29 24 25 27 27 28 29 28 28 28 29 28 26 27 27 28 28 29 29 29 28 27 28 27 28 29 28 29 29 29 27
33 34 33 33 33 33 33 34 30 30 26 27 29 32 34 35 36 35 33 30 27 26 25 25 27 25 23 25 27 30 32 31 32 31 32 32 32 31 31 32 32 31 32 33 31 31 30 30 31 28 27 26 25 22 26 29 24 24 26 26 27 28 29 27 28 30 28 25 27 28 30 28 27 29 28 28 27 26 27 28 29 30 30 30 29 26 26
34 34 34 33 33 30 30 29 29 27 25 25 26 29 33 36 36 35 32 31 30 24 23 22 22 22 26 24 25 29 33 30 30 29 31 32 32 32 31 32 31 31 30 32 30 30 30 32 30 28 28 26 25 27 26 23 23 25 25 25 27 27 27 27 28 28 25 26 26 27 28 29 29 28 27 26 26 26 29 28 28 30 30 29 27 26 26
34 34 33 32 25 26 16 18 30 27 25 28 31 34 34 33 31 30 29 29 29 32 24 21 20 19 21 23 26 28 30 28 30 28 28 30 30 30 31 32 31 32 30 29 28 30 32 33 30 28 26 28 28 22 21 21 22 23 26 25 26 25 26 28 28 26 26 25 25 25 26 27 26 26 26 26 26 27 28 28 28 29 28 28 27 26 26
34 32 21 21 18 17 15 18 21 27 32 30 31 28 25 24 20 21 23 21 23 28 23 23 19 20 21 22 22 29 29 26 28 27 26 29 30 27 29 31 31 32 27 29 30 33 31 30 28 28 27 25 23 21 21 20 20 20 21 22 24 23 25 26 27 28 27 26 24 23 23 23 24 25 26 25 25 26 28 28 27 26 28 29 27 26 24
29 21 15 11 14 13 18 19 30 32 25 28 30 23 20 18 18 16 16 17 19 18 21 21 19 21 22 23 24 29 28 26 24 25 26 30 28 26 28 27 30 29 26 28 29 32 28 26 25 26 26 23 23 21 19 18 18 18 18 19 20 23 25 27 25 27 28 28 29 28 29 28 27 26 26 26 25 25 24 25 26 26 27 27 26 24 24
25 21 14 7 9 18 27 29 28 23 26 22 16 16 13 15 16 13 17 14 14 16 18 18 20 21 24 21 22 23 29 25 24 23 25 27 30 27 29 27 29 28 25 24 28 31 29 27 25 27 27 22 21 18 17 16 15 15 14 15 16 17 18 19 19 19 22 23 24 26 25 27 27 28 26 25 25 24 21 22 23 24 24 24 23 24 24
27 21 16 13 17 14 20 24 18 15 17 11 12 13 12 12 12 13 15 11 11 13 18 17 20 21 23 23 24 22 27 28 26 26 26 23 29 28 24 23 30 22 20 20 26 25 23 23 24 27 24 15 15 15 15 14 13 13 13 13 14 14 15 15 14 15 19 21 22 22 23 24 26 26 26 25 25 24 22 21 20 20 20 21 20 17 16
29 28 26 25 23 22 17 14 8 9 8 12 10 8 10 11 13 12 13 9 10 12 17 20 19 20 20 23 23 25 24 26 26 25 24 21 27 23 21 19 19 19 18 21 25 21 25 24 23 21 15 12 11 11 12 13 13 11 11 12 13 13 12 12 12 11 12 15 15 16 17 18 19 20 22 22 20 19 18 17 16 14 12 12 14 15 16
31 29 21 10 5 7 6 2 6 6 5 5 5 4 5 9 11 10 9 13 11 13 16 20 21 27 26 25 23 26 25 29 24 20 21 21 26 21 17 16 17 16 19 22 22 22 21 21 22 16 11 11 9 7 7 8 11 12 10 10 12 13 12 11 11 10 10 10 10 10 11 11 11 13 14 14 12 10 9 9 9 9 9 9 10 11 12
26 23 6 -2 1 1 7 0 7 5 4 4 3 1 3 5 7 6 5 7 9 11 15 15 17 19 17 20 20 22 22 24 28 20 19 20 17 16 16 14 15 21 22 18 18 18 17 14 14 13 12 10 6 4 3 4 5 10 9 8 10 11 11 11 11 10 9 9 8 7 8 8 8 8 9 9 9 8 6 6 7 7 8 9 8 7 9
14 5 -4 -3 0 2 -1 -1 -0 3 -3 1 10 2 3 4 4 3 6 8 7 9 12 15 16 17 16 18 19 19 21 18 23 18 15 17 15 15 15 15 15 14 16 16 14 15 14 12 13 9 6 4 3 2 1 2 3 6 9 6 6 8 10 10 9 9 8 7 7 6 6 5 4 4 5 5 6 8 8 7 7 8 8 9 8 7 6
7 5 2 -1 -1 -1 -2 -2 -3 -2 2 3 0 1 1 4 4 6 7 4 4 7 7 9 11 16 16 16 17 15 11 12 16 15 15 12 13 11 15 18 16 14 11 11 12 13 13 13 9 5 2 0 -0 0 -0 0 1 3 3 3 3 4 5 6 7 7 7 7 7 5 5 6 4 2 1 1 1 2 3 4 6 6 8 7 6 5 4
5 1 -6 -3 -1 -3 -5 -1 -0 1 0 -1 -1 -2 0 2 2 4 5 2 2 3 3 7 10 16 15 13 14 14 12 10 14 15 15 12 11 13 16 13 10 10 11 9 11 12 12 9 5 1 -1 -2 -2 -2 -2 -2 -2 -1 -0 0 0 0 1 2 3 4 6 6 5 5 3 2 2 1 1 -0 -1 -1 -0 1 2 3 4 3 3 2 2
5 6 -6 -2 -2 -3 -1 -2 -6 -4 -4 -1 -1 -3 -3 -2 2 4 3 -0 -1 1 4 9 13 11 13 14 16 13 10 8 13 14 15 13 16 10 10 8 7 7 7 10 11 11 8 4 0 -1 -3 -3 -4 -4 -4 -5 -4 -4 -4 -3 -3 -3 -2 -1 -1 1 2 2 2 2 2 0 -0 -1 -1 -2 -3 -4 -3 -2 -1 0 1 1 1 1 1
2 -2 -1 -3 -4 -4 -4 -4 -2 -1 -2 -6 -9 -6 -5 -4 -0 1 -1 -3 -2 -1 1 6 10 10 9 10 9 11 9 10 10 9 10 9 8 8 7 4 6 7 9 10 9 6 3 -2 -2 -4 -4 -5 -6 -6 -5 -6 -5 -5 -5 -6 -5 -5 -4 -4 -4 -3 -2 -1 0 0 1 1 1 -0 -1 -2 -3 -5 -5 -4 -4 -4 -3 -2 -2 -2 -2
-3 -7 -8 -10 -8 -6 -5 -8 -5 -4 -2 -3 -5 -5 -5 -4 -2 -0 -3 -5 -4 -4 5 13 17 15 9 8 6 4 5 4 5 9 8 6 5 3 6 5 5 8 10 8 5 0 -4 -5 -3 -3 -5 -6 -7 -8 -8 -7 -7 -6 -5 -5 -5 -6 -5 -5 -5 -5 -4 -4 -3 -2 -2 -2 -3 -4 -4 -5 -5 -6 -6 -6 -6 -6 -6 -6 -5 -5 -5
-6 -7 -10 -10 -7 -7 -9 -7 -6 -6 -3 -3 -6 -6 -7 -8 -6 -5 -4 -7 -9 -1 5 3 2 -3 -1 1 0 2 3 7 7 4 6 5 5 4 5 7 9 10 7 -2 -6 -7 -8 -9 -8 -6 -5 -6 -8 -8 -9 -8 -8 -7 -7 -6 -5 -6 -6 -6 -6 -6 -6 -6 -5 -6 -5 -5 -5 -4 -4 -3 -3 -4 -5 -7 -8 -9 -9 -9 -9 -8 -7
-8 -8 -10 -12 -16 -12 -11 -9 -8 -7 -6 -7 -9 -10 -9 -8 -5 -6 -6 -9 -4 6 2 -2 -4 -6 -5 0 2 3 2 4 2 4 6 4 3 7 6 9 8 3 -0 -1 -6 -9 -10 -11 -12 -12 -11 -10 -10 -10 -9 -9 -9 -9 -8 -8 -7 -7 -7 -7 -7 -7 -7 -7 -6 -6 -5 -5 -4 -3 -2 -1 -1 -2 -5 -8 -10 -10 -11 -11 -11 -11 -10